Volver al catálogo

STARLINK-5801

ActivoComunicacionesVLEO
NORAD 56005·PAYLOAD·🇺🇸 United States

Lanzado Mar 24, 2023 desde Cape Canaveral Space Force Station

Loading…

Próximos Pases (próximas 24 horas)

TLE

ActualizadoSource: CelesTrak SupGP

Época: Sep 14, 2026, 21:20 UTC

1 56005C 23042V   26257.88937500  .00045211  00000+0  16378-2 0  2575
2 56005  43.0011  75.1394 0001207 270.9727 239.0963 15.27550774    16

Sigue STARLINK-5801 en tiempo real con AllMySat

Download on the App Store